Torna al catalogo

THORAD AGENA D DEB

AttivoSSO
NORAD 42498·DEBRIS·🇺🇸 United States

Lanciato Apr 8, 1970 da Vandenberg Space Force Base

Loading…

Prossimi Passaggi (prossime 24 ore)

TLE

In scadenzaSource: Space-Track

Epoca: Sep 6, 2026, 23:14 UTC

1 42498U 70025RC  26249.96808111  .00000921  00000-0  17955-2 0  9999
2 42498 100.5030 295.6049 0169116  99.7139 262.3129 13.34025748601790

Traccia THORAD AGENA D DEB in tempo reale con AllMySat

Download on the App Store